Location: Unspecified
(0.0000°N, 0.0000°E)
Time: 17:36:57
(UTC+00:00)

DANDE - Visible Passes

Search period start: 18 April 2024 00:00
Search period end: 28 April 2024 00:00
Orbit: 315 x 1149 km, 81.0° (Epoch: 17 April)

Date Brightness Start Highest point End Pass type
(mag) Time Alt. Az. Time Alt. Az. Time Alt. Az.
19 Apr ? 19:38:07 10° NNW 19:39:03 17° NW 19:39:03 17° NW visible
20 Apr ? 18:50:58 10° NNE 18:52:53 23° ENE 18:52:53 23° ENE visible
21 Apr ? 19:44:50 10° WNW 19:45:53 12° W 19:46:23 11° WSW visible
22 Apr ? 18:55:49 10° N 18:58:26 85° E 19:00:25 15° S visible
24 Apr ? 19:01:11 10° NW 19:03:25 26° W 19:05:41 10° SSW visible
26 Apr ? 04:59:41 10° ESE 05:02:11 12° E 05:04:41 10° ENE visible
26 Apr ? 19:08:08 10° W 19:08:16 10° W 19:08:24 10° W visible
27 Apr ? 18:17:59 10° N 18:20:31 80° W 18:23:11 10° S visible
